Location: Trani
(41.2830°N, 16.4170°E)
Time: 19:29:16
(UTC+02:00)

N. Korean satellite - Visible Passes

Search period start: 03 August 2021 00:00
Search period end: 13 August 2021 00:00
Orbit: 451 x 498 km, 97.2° (Epoch: 03 August)

Date Brightness Start Highest point End Pass type
(mag) Time Alt. Az. Time Alt. Az. Time Alt. Az.
03 Aug 10.0 05:07:44 10° E 05:08:20 10° E 05:08:57 10° E visible
06 Aug 9.6 05:17:15 10° ENE 05:19:12 14° E 05:21:07 10° SE visible
09 Aug 9.4 05:27:27 10° NE 05:30:00 19° E 05:32:31 10° SE visible
